Location: Unspecified
(43.3116°N, 2.0147°W)
Time: 08:16:44
(UTC+02:00)

Okean 3 - Pass Details

Date: 09 July 2022
Orbit: 573 x 599 km, 82.5° (Epoch: 09 August)

Event Time Altitude Azimuth Distance (km) Brightness Sun altitude
Rises 05:42:54 0° 3° (N) 2,809 7.7 -8.6°
Reaches altitude 10° 05:45:26 10° 17° (NNE) 1,900 7.1 -8.3°
Maximum altitude 05:48:55 25° 73° (ENE) 1,180 5.9 -7.8°
Drops below altitude 10° 05:52:22 10° 130° (SE) 1,878 6.2 -7.3°
Sets 05:54:50 0° 144° (SE) 2,769 6.9 -7.0°
